[Date Prev][Date Next][Thread Prev][Thread Next] - [Date Index][Thread Index][Author Index]
2 Line ISS Keps 8-6
- Subject: [sarex] 2 Line ISS Keps 8-6
- From: "Dave Larsen PhD" <doc@xxxxxxxxxxx>
- Date: Mon, 6 Aug 2001 02:37:42 -0700
ISS
1 25544U 98067A 01218.21363975 .00020281 00000-0 27036-3 0 3086
2 25544 51.6377 196.2002 0011689 342.0692 92.8276 15.58027096154896
----
Via the sarex mailing list at AMSAT.ORG courtesy of AMSAT-NA.
To unsubscribe, send "unsubscribe sarex" to Majordomo@amsat.org
AMSAT Home